Regional Weather Roundup
Issued by NWS

Home | Current Version | Previous Version | Graphics & Text | Print | Product List | Glossary On
Versions: 1 2 3 4 5 6 7 8 9 10 11 12 13 14 15 16 17 18 19 20 21 22 23 24 25 26 27
000
ASUS45 KBOI 290410
RWRID

IDAHO REGIONAL WEATHER ROUNDUP
NATIONAL WEATHER SERVICE BOISE ID
1000 PM MDT SAT MAY 28 2016

NOTE: "FAIR" INDICATES FEW OR NO CLOUDS BELOW 12000 FEET
WITH NO SIGNIFICANT WEATHER AND/OR OBSTRUCTIONS TO VISIBILITY

IDZ012-014-290500-
SOUTHWEST IDAHO


CITY           SKY/WX    TMP DP  RH WIND       PRES   REMARKS
BOISE          CLEAR     63  31  30 NW6       30.00S
CALDWELL       CLEAR     63  34  33 CALM      30.00S
MOUNTAIN HOME  CLEAR     65  35  32 NW7       30.01R
$$

IDZ016-017-290500-
SOUTHCENTRAL IDAHO


CITY           SKY/WX    TMP DP  RH WIND       PRES   REMARKS
BURLEY         CLEAR     55  33  43 CALM      30.05R
JEROME         CLEAR     57  29  34 CALM      30.06R
TWIN FALLS     CLEAR     45  37  73 CALM      30.06R
$$

IDZ019>023-290500-
SOUTHEAST IDAHO


CITY           SKY/WX    TMP DP  RH WIND       PRES   REMARKS
IDAHO FALLS    CLEAR     56  31  38 S7        30.09R
POCATELLO      CLOUDY    46  34  62 S7        30.08R
REXBURG        CLEAR     53  30  41 S8        30.09R
$$

IDZ006-010-011-018-031-032-290500-
CENTRAL IDAHO MOUNTAINS


CITY           SKY/WX    TMP DP  RH WIND       PRES   REMARKS
MCCALL         CLEAR     49  33  54 NE5       30.07R
HAILEY         CLEAR     46  37  71 CALM      30.10R
STANLEY          N/A     40  25  55 S5        30.12R
SALMON         CLEAR     54  34  47 S3        30.00R
CHALLIS        CLEAR     53  27  36 NW6       30.03R
$$

IDZ002-004-006-007-026-290500-
NORTHERN IDAHO


CITY           SKY/WX    TMP DP  RH WIND       PRES   REMARKS
LEWISTON       PTCLDY    63  42  46 SE6       29.99S
LOWELL           N/A     53  46  77 N3        30.02R
COEUR D`ALENE  MOCLDY    55  37  50 SE3       29.99S
MULLAN PASS    PTCLDY    41  30  65 SW5       30.09S
$$




USA.gov is the U.S. government's official web portal to all federal, state and local government web resources and services.